[[{"header":{"parameterUnit":"m.s-1","parameterCategory":1,"la1":30.2991,"la2":30.254,"lo1":-89.0895,"lo2":-89.0444,"dy":0.0017,"dx":0.0017,"nx":28,"ny":28,"refTime":"2025-09-14T09:00:00:Z","depth":0,"parameterNumber":2,"parameterNumberName":"U-component_of_WINDS"},"data":[0,0,0,0,0,0,0,0,0,0,0,0,0,0,0,0,0,0,0,0,0,0,0,0,0,0,0,0,0,0,0,0,0,0,0,0,0,0,0,0,0,0,0,0,0,0,0,0,0,0,0,0,0,0,0,0,0,0,1.5209,1.5209,0,1.5198,1.5198,1.5198,1.5142,1.514,1.5139,1.5138,1.5127,1.5128,1.5129,0,0,0,0,0,0,0,0,0,0,0,0,0,1.5181,1.5182,1.5209,1.5209,1.5209,1.5198,1.5198,1.5198,1.5142,1.514,1.5139,1.5137,1.5126,1.5127,1.5129,0,0,0,0,0,0,0,0,0,0,0,0,0,1.5184,1.5183,1.5209,1.518,1.5177,1.5198,1.5198,1.5198,1.5142,1.514,1.5138,1.5136,1.5126,1.5127,1.5129,1.5178,0,0,1.5133,1.5134,0,0,0,0,0,0,0,0,1.5184,1.5185,1.5184,1.5182,1.5179,1.5169,1.5184,1.5191,1.5143,1.5156,1.5138,1.5135,1.5143,1.5142,1.5145,1.5177,1.5177,1.5133,1.5134,1.5135,1.5135,0,0,0,0,0,0,0,1.5184,1.5186,1.5205,1.5184,1.5181,1.5167,1.5165,1.5185,1.516,1.5154,1.515,1.515,1.5141,1.5144,1.5144,1.5177,1.5133,1.5135,1.5135,1.5136,1.5247,1.5249,0,0,0,0,0,0,1.5188,1.5186,1.5205,1.5205,1.5177,1.5169,1.5167,1.5174,1.516,1.5156,1.5151,1.5147,1.5142,1.5143,1.5144,1.5198,1.5135,1.5136,1.5137,1.5245,1.5247,1.5249,0,0,0,0,0,0,1.5188,1.519,1.5206,1.5194,1.5195,1.5172,1.518,1.5175,1.5178,1.5158,1.5153,1.5159,1.5141,1.5142,1.5169,1.5197,1.5137,1.5138,1.5242,1.5245,1.5248,1.5309,0,0,0,0,0,0,1.5187,1.5191,1.5209,1.5195,1.5196,1.5232,1.5182,1.5176,1.5181,1.5175,1.5164,1.516,1.5139,1.5167,1.5171,1.5198,1.5139,1.5239,1.5244,1.5247,1.5304,1.5313,1.5321,0,0,0,0,0,1.5186,1.5227,1.521,1.5213,1.5218,1.5234,1.5234,1.5209,1.5183,1.5201,1.5188,1.516,1.5194,1.5171,1.5174,1.5202,1.5238,1.5242,1.5247,1.53,1.5312,1.5321,0,0,0,0,0,0,1.5245,1.5225,1.5206,1.5243,1.5241,1.5224,1.5246,1.5223,1.5227,1.5222,1.5191,1.5189,1.5221,1.5214,1.5189,1.5248,1.5211,1.5216,1.525,1.5261,1.527,1.5269,1.514,0,0,0,0,0,1.5263,1.5277,1.5258,1.5293,1.5292,1.527,1.5276,1.5257,1.5253,1.5251,1.524,1.5237,1.5247,1.5254,1.5262,1.5304,1.5299,1.5324,1.5333,1.534,1.5345,1.5364,1.5375,1.5265,1.5265,1.5265,0,0,1.5299,1.5289,1.53,1.5304,1.53,1.5315,1.5269,1.5287,1.5297,1.5254,1.5278,1.5271,1.5265,1.53,1.5314,1.5295,1.5375,1.5346,1.5352,1.5353,1.537,1.5381,1.539,1.5268,1.5267,1.5267,0,0,1.5371,1.5366,1.5394,1.539,1.5384,1.5368,1.5375,1.5362,1.5355,1.5379,1.5346,1.5359,1.5377,1.5373,1.5374,1.5445,1.5419,1.5449,1.5494,1.5513,1.5522,1.5529,1.5553,1.5562,1.5454,1.5454,1.5454,0,1.5417,1.5437,1.5411,1.543,1.5432,1.5394,1.542,1.5419,1.5416,1.5418,1.5397,1.5417,1.5412,1.5444,1.5461,1.5464,1.5469,1.5449,1.5523,1.553,1.5537,1.5558,1.5568,1.5458,1.5457,1.5457,1.5457,0,1.5492,1.5507,1.553,1.5527,1.5532,1.5556,1.5532,1.5541,1.5521,1.5508,1.5533,1.5524,1.5529,1.5536,1.5518,1.5565,1.5553,1.5528,1.549,1.5551,1.5571,1.5579,1.5463,1.5461,1.546,1.5459,0,0,1.5601,1.5582,1.5591,1.5588,1.5579,1.5589,1.5611,1.5615,1.5622,1.5622,1.5638,1.5654,1.563,1.5631,1.5612,1.563,1.5684,1.5602,1.5602,1.5616,1.5734,1.5751,1.5761,1.5668,1.5669,1.567,1.5733,0,1.5668,1.5702,1.5679,1.5717,1.5729,1.5693,1.5711,1.5707,1.5696,1.5704,1.5692,1.5702,1.5672,1.5672,1.5687,1.5674,1.5707,1.567,1.5681,1.5682,1.5681,1.5772,1.579,1.585,1.5741,1.5742,1.5743,0,1.5751,1.5753,1.5792,1.5778,1.5783,1.58,1.5801,1.581,1.5805,1.5795,1.5796,1.5772,1.5792,1.5756,1.5782,1.5757,1.576,1.5754,1.5756,1.5754,1.5715,1.577,1.5868,1.5877,1.5756,1.5755,1.5754,0,1.5823,1.5836,1.586,1.586,1.5845,1.5857,1.5852,1.5844,1.5848,1.5849,1.5851,1.5855,1.5857,1.5861,1.5839,1.5815,1.5867,1.583,1.5858,1.5858,1.5868,1.5868,1.5966,1.5875,1.5875,1.5875,1.5874,0,1.5899,1.5924,1.5892,1.5907,1.5934,1.5907,1.5934,1.5924,1.5918,1.593,1.59,1.5912,1.5883,1.5892,1.5876,1.5898,1.59,1.5892,1.5886,1.5893,1.5894,1.5893,1.5888,1.5877,1.5876,1.5876,1.5875,0,1.5983,1.5963,1.5987,1.5971,1.5967,1.5987,1.5974,1.5986,1.5973,1.5989,1.5991,1.597,1.5978,1.5957,1.5964,1.5953,1.5984,1.5974,1.5986,1.5982,1.601,1.6007,1.611,1.6121,1.6025,1.6026,1.6027,0,1.6032,1.605,1.6035,1.6041,1.6037,1.6047,1.605,1.6025,1.6029,1.6024,1.6037,1.6044,1.6047,1.6063,1.6048,1.6053,1.604,1.6076,1.6041,1.6046,1.6038,1.6036,1.6037,1.6083,1.6084,1.6085,1.6086,0,1.6119,1.6108,1.6114,1.6116,1.6121,1.6121,1.612,1.6127,1.6099,1.6106,1.6114,1.6117,1.6123,1.6129,1.613,1.6124,1.61,1.6098,1.6104,1.6109,1.6115,1.611,1.6003,1.6095,1.6094,1.6093,1.6093,1.6092,1.6185,1.6199,1.6191,1.6198,1.6194,1.6193,1.6204,1.6191,1.6198,1.62,1.6185,1.6197,1.619,1.6188,1.6185,1.6193,1.6177,1.6187,1.6189,1.6191,1.6195,1.6116,1.6194,1.6194,1.6193,1.6193,1.6193,0,1.627,1.6262,1.6269,1.6267,1.6273,1.625,1.6247,1.6253,1.6263,1.6259,1.6263,1.6272,1.6278,1.6264,1.6267,1.6277,1.6266,1.6278,1.6276,1.6275,1.621,1.6203,1.6287,1.6287,1.6287,1.6287,1.6287,1.6287,1.6314,1.6335,1.6323,1.6342,1.6334,1.6345,1.6345,1.6344,1.634,1.6351,1.6356,1.6346,1.6338,1.634,1.6345,1.634,1.6342,1.6358,1.635,1.6289,1.628,1.6271,1.6264,1.6359,1.6359,1.6413,1.6414,1.6414]},{"header":{"parameterUnit":"m.s-1","parameterCategory":1,"la1":30.2991,"la2":30.254,"lo1":-89.0895,"lo2":-89.0444,"dy":0.0017,"dx":0.0017,"nx":28,"ny":28,"refTime":"2025-09-14T09:00:00:Z","depth":0,"parameterNumber":3,"parameterNumberName":"V-component_of_WINDS"},"data":[0,0,0,0,0,0,0,0,0,0,0,0,0,0,0,0,0,0,0,0,0,0,0,0,0,0,0,0,0,0,0,0,0,0,0,0,0,0,0,0,0,0,0,0,0,0,0,0,0,0,0,0,0,0,0,0,0,0,1.0433,1.0433,0,1.0396,1.0396,1.0395,1.0314,1.0312,1.0311,1.0309,1.0271,1.0272,1.0272,0,0,0,0,0,0,0,0,0,0,0,0,0,1.0431,1.0432,1.0433,1.0433,1.0432,1.0396,1.0396,1.0395,1.0314,1.0312,1.031,1.0309,1.0271,1.0272,1.0272,0,0,0,0,0,0,0,0,0,0,0,0,0,1.0417,1.0432,1.0433,1.0388,1.0383,1.0396,1.0396,1.0395,1.0315,1.0312,1.031,1.0308,1.0271,1.0272,1.0272,1.0327,0,0,1.0275,1.0275,0,0,0,0,0,0,0,0,1.0418,1.0417,1.0395,1.0391,1.0386,1.0357,1.0381,1.0372,1.0315,1.0341,1.0309,1.0306,1.0302,1.03,1.0298,1.0325,1.0324,1.0275,1.0275,1.0276,1.0276,0,0,0,0,0,0,0,1.0419,1.0418,1.0419,1.0395,1.0389,1.0368,1.0363,1.0379,1.0336,1.0338,1.0332,1.0329,1.0299,1.0298,1.0297,1.0323,1.0275,1.0276,1.0276,1.0276,1.0389,1.0392,0,0,0,0,0,0,1.0427,1.042,1.042,1.0417,1.0396,1.037,1.0365,1.0369,1.0335,1.0328,1.0331,1.0326,1.0298,1.0296,1.0295,1.0355,1.0276,1.0277,1.0277,1.0387,1.039,1.0393,0,0,0,0,0,0,1.0427,1.0428,1.0421,1.0417,1.0414,1.0373,1.0378,1.037,1.0368,1.033,1.0322,1.0338,1.0296,1.0294,1.0319,1.0353,1.0277,1.0278,1.0384,1.0388,1.0391,1.0477,0,0,0,0,0,0,1.0428,1.0428,1.045,1.0418,1.0415,1.0447,1.038,1.0371,1.037,1.0362,1.0334,1.0327,1.0294,1.0318,1.032,1.0352,1.0278,1.0381,1.0386,1.039,1.0471,1.0483,1.0493,0,0,0,0,0,1.0428,1.0476,1.0451,1.0452,1.0441,1.0449,1.0447,1.0407,1.0373,1.0393,1.0368,1.0328,1.0349,1.0322,1.0323,1.0356,1.0378,1.0384,1.039,1.0465,1.048,1.0493,0,0,0,0,0,0,1.0513,1.0471,1.0443,1.0482,1.047,1.0435,1.046,1.0425,1.0422,1.0414,1.0365,1.0359,1.039,1.0375,1.0346,1.0405,1.0357,1.0363,1.0414,1.0428,1.0439,1.0442,1.0279,0,0,0,0,0,1.0536,1.0547,1.0509,1.0547,1.0542,1.0502,1.0504,1.0474,1.0459,1.0454,1.043,1.0417,1.042,1.0423,1.0424,1.0468,1.0459,1.0491,1.0502,1.0512,1.0518,1.0537,1.055,1.0411,1.0411,1.0411,0,0,1.0585,1.0563,1.0573,1.0564,1.0551,1.0562,1.0498,1.0514,1.0521,1.0456,1.0478,1.046,1.0441,1.0475,1.0489,1.0464,1.0554,1.0519,1.0527,1.0527,1.0544,1.0557,1.0569,1.0415,1.0414,1.0414,0,0,1.0679,1.0664,1.0693,1.068,1.066,1.0633,1.064,1.061,1.0595,1.0616,1.0567,1.0574,1.0581,1.0569,1.0564,1.065,1.0612,1.0651,1.0711,1.073,1.0741,1.075,1.078,1.0791,1.0657,1.0657,1.0657,0,1.0742,1.0757,1.0712,1.073,1.0726,1.0667,1.0695,1.0685,1.0667,1.0665,1.0637,1.0642,1.0626,1.0655,1.0675,1.0674,1.0679,1.0654,1.0743,1.0752,1.076,1.0787,1.0799,1.0662,1.0662,1.0661,1.0661,0,1.0834,1.0845,1.087,1.0853,1.0852,1.0875,1.0833,1.0838,1.0807,1.0782,1.0802,1.078,1.0774,1.0779,1.075,1.0803,1.0788,1.0752,1.0702,1.0779,1.0803,1.0814,1.0669,1.0667,1.0666,1.0665,0,0,1.0982,1.0938,1.0948,1.0938,1.0911,1.0918,1.0937,1.093,1.0934,1.0923,1.0936,1.0942,1.0908,1.0902,1.0871,1.0888,1.0955,1.085,1.0848,1.0869,1.101,1.1036,1.1049,1.0929,1.0931,1.0933,1.1011,0,1.1069,1.1099,1.1059,1.1098,1.1106,1.1048,1.1064,1.1048,1.1025,1.1027,1.1001,1.1005,1.0961,1.0956,1.0971,1.0944,1.0982,1.0938,1.0941,1.0941,1.0947,1.1062,1.1091,1.1166,1.102,1.1022,1.1023,0,1.1175,1.1167,1.1207,1.1174,1.1176,1.1192,1.1181,1.1185,1.1164,1.1146,1.1138,1.1099,1.1114,1.1066,1.1084,1.1054,1.1053,1.1039,1.1041,1.104,1.0987,1.1064,1.1189,1.1201,1.1038,1.1037,1.1036,0,1.1278,1.1277,1.13,1.1294,1.1257,1.1268,1.1253,1.123,1.1228,1.1218,1.1216,1.1209,1.1204,1.1199,1.1159,1.1128,1.1181,1.113,1.1165,1.1166,1.118,1.1179,1.1307,1.118,1.118,1.1179,1.1179,0,1.1379,1.1405,1.1345,1.136,1.1386,1.1338,1.1366,1.1345,1.1324,1.1332,1.1282,1.129,1.1237,1.1239,1.1208,1.1227,1.1225,1.121,1.1201,1.1214,1.1216,1.1213,1.1206,1.1182,1.1182,1.1181,1.1181,0,1.1499,1.146,1.1481,1.1443,1.1434,1.1455,1.1422,1.1433,1.1405,1.1415,1.1415,1.1371,1.1371,1.133,1.1322,1.13,1.1332,1.1314,1.1339,1.1333,1.137,1.1367,1.1499,1.1513,1.1378,1.138,1.1381,0,1.1566,1.1584,1.1547,1.1549,1.1536,1.1539,1.1536,1.1489,1.1487,1.1464,1.1477,1.1472,1.1466,1.1468,1.1435,1.1427,1.1408,1.1455,1.1407,1.1418,1.1407,1.1407,1.1407,1.1465,1.1467,1.1468,1.147,0,1.1688,1.1667,1.1665,1.1655,1.1653,1.1643,1.163,1.1634,1.1581,1.1582,1.1581,1.1576,1.1566,1.1561,1.1547,1.153,1.1491,1.1485,1.1492,1.1506,1.1519,1.1511,1.1366,1.1482,1.1481,1.148,1.1479,1.1479,1.1783,1.1795,1.1771,1.1769,1.1754,1.1742,1.1749,1.1722,1.172,1.1708,1.1679,1.1682,1.1658,1.1635,1.1621,1.1622,1.1598,1.1609,1.1612,1.1615,1.1622,1.1519,1.1619,1.1619,1.1618,1.1618,1.1618,0,1.1901,1.1882,1.1881,1.1863,1.1861,1.1824,1.1806,1.1807,1.181,1.1791,1.1785,1.1782,1.1777,1.1743,1.1733,1.174,1.1721,1.1739,1.1737,1.1734,1.1645,1.1639,1.1753,1.1753,1.1753,1.1753,1.1753,1.1753,1.1963,1.1982,1.1958,1.1968,1.1948,1.195,1.1943,1.1931,1.1915,1.1914,1.1909,1.1886,1.1861,1.1848,1.1841,1.183,1.1829,1.1852,1.1836,1.1753,1.174,1.1728,1.1722,1.1852,1.1852,1.1925,1.1925,1.1926]}]]